When you browse on this site, cookies collect data to enhance your experience and personalize the content and advertising you see.
Visit our Privacy Policy to learn more. By continuing to use the site, you agree to this use of cookies and data.
  • In Österreich
  • Länderverzeichnis
  • Für 7 Tage
  • Wassertemperatur
  • Wetterkarte
  • News
  • Widgets
  • user-avatar
    Anmelden

    Stündliche Wetter Nilo

    Heute, 25 Januar, Samstag

    Zeit Temperatur Niederschläge Wind Luftdruck Luftfeuchtigkeit
    00:00 +26°C° 0.6 mm 1 m/S 727 mmHg 86%
    01:00 +24°C° 0.6 mm 0 m/S 727 mmHg 87%
    02:00 +24°C° 0.2 mm 0 m/S 727 mmHg 88%
    03:00 +24°C° 0.2 mm 0 m/S 727 mmHg 88%
    04:00 +24°C° 0.2 mm 0 m/S 726 mmHg 89%
    05:00 +24°C° 0 mm 0 m/S 727 mmHg 89%
    06:00 +24°C° 0 mm 0 m/S 727 mmHg 89%
    07:00 +24°C° 0 mm 0 m/S 728 mmHg 89%
    08:00 +25°C° 0.2 mm 0 m/S 728 mmHg 84%
    09:00 +29°C° 0.2 mm 1 m/S 728 mmHg 79%
    10:00 +30°C° 0.2 mm 1 m/S 729 mmHg 74%
    11:00 +31°C° 0.5 mm 1 m/S 728 mmHg 71%
    12:00 +32°C° 0.5 mm 1 m/S 727 mmHg 67%
    13:00 +33°C° 0.5 mm 1 m/S 726 mmHg 63%
    14:00 +33°C° 0.3 mm 1 m/S 725 mmHg 62%
    15:00 +33°C° 0.3 mm 1 m/S 725 mmHg 61%
    16:00 +33°C° 0.3 mm 1 m/S 724 mmHg 60%
    17:00 +32°C° 0.8 mm 1 m/S 725 mmHg 67%
    18:00 +30°C° 0.8 mm 1 m/S 725 mmHg 75%
    19:00 +28°C° 0.8 mm 1 m/S 725 mmHg 82%
    20:00 +28°C° 0.9 mm 1 m/S 726 mmHg 84%
    21:00 +27°C° 0.9 mm 1 m/S 727 mmHg 85%
    22:00 +27°C° 0.9 mm 1 m/S 727 mmHg 87%
    23:00 +27°C° 0.7 mm 1 m/S 727 mmHg 87%

    Morgen, 26 Januar, Sonntag

    Zeit Temperatur Niederschläge Wind Luftdruck Luftfeuchtigkeit
    00:00 +26°C° 0.7 mm 1 m/S 727 mmHg 88%
    01:00 +24°C° 0.7 mm 0 m/S 726 mmHg 88%
    02:00 +24°C° 0.5 mm 0 m/S 726 mmHg 89%
    03:00 +24°C° 0.5 mm 0 m/S 726 mmHg 90%
    04:00 +24°C° 0.5 mm 0 m/S 726 mmHg 90%
    05:00 +24°C° 0.3 mm 0 m/S 726 mmHg 90%
    06:00 +24°C° 0.3 mm 0 m/S 727 mmHg 90%
    07:00 +24°C° 0.3 mm 0 m/S 727 mmHg 89%
    08:00 +25°C° 0.4 mm 0 m/S 728 mmHg 85%
    09:00 +28°C° 0.4 mm 1 m/S 728 mmHg 81%
    10:00 +30°C° 0.4 mm 1 m/S 728 mmHg 77%
    11:00 +31°C° 0.7 mm 1 m/S 727 mmHg 74%
    12:00 +31°C° 0.7 mm 1 m/S 727 mmHg 71%
    13:00 +32°C° 0.7 mm 1 m/S 726 mmHg 68%
    14:00 +32°C° 0.4 mm 1 m/S 725 mmHg 68%
    15:00 +32°C° 0.4 mm 1 m/S 725 mmHg 68%
    16:00 +32°C° 0.4 mm 1 m/S 724 mmHg 68%
    17:00 +31°C° 0.9 mm 1 m/S 725 mmHg 73%
    18:00 +29°C° 0.9 mm 1 m/S 725 mmHg 77%
    19:00 +28°C° 0.9 mm 1 m/S 726 mmHg 82%
    20:00 +27°C° 1.1 mm 1 m/S 726 mmHg 83%
    21:00 +27°C° 1.1 mm 1 m/S 727 mmHg 84%
    22:00 +27°C° 1.1 mm 1 m/S 728 mmHg 85%
    23:00 +26°C° 0.7 mm 1 m/S 727 mmHg 86%

    übermorgen, 27 Januar, Montag

    Zeit Temperatur Niederschläge Wind Luftdruck Luftfeuchtigkeit
    00:00 +26°C° 0.7 mm 1 m/S 727 mmHg 87%
    01:00 +24°C° 0.7 mm 0 m/S 727 mmHg 88%
    02:00 +24°C° 0.8 mm 0 m/S 726 mmHg 89%
    03:00 +23°C° 0.8 mm 0 m/S 726 mmHg 89%
    04:00 +23°C° 0.8 mm 0 m/S 726 mmHg 90%
    05:00 +23°C° 0.5 mm 0 m/S 726 mmHg 90%
    06:00 +23°C° 0.5 mm 0 m/S 727 mmHg 90%
    07:00 +24°C° 0.5 mm 0 m/S 728 mmHg 90%
    08:00 +27°C° 0.5 mm 1 m/S 728 mmHg 86%
    09:00 +28°C° 0.5 mm 1 m/S 728 mmHg 83%
    10:00 +29°C° 0.5 mm 1 m/S 728 mmHg 80%
    11:00 +30°C° 0.4 mm 1 m/S 728 mmHg 76%
    12:00 +30°C° 0.4 mm 1 m/S 727 mmHg 73%
    13:00 +31°C° 0.4 mm 1 m/S 726 mmHg 70%
    14:00 +32°C° 0.2 mm 1 m/S 726 mmHg 68%
    15:00 +32°C° 0.2 mm 1 m/S 725 mmHg 66%
    16:00 +32°C° 0.2 mm 1 m/S 724 mmHg 64%
    17:00 +31°C° 0.6 mm 1 m/S 725 mmHg 69%
    18:00 +29°C° 0.6 mm 1 m/S 726 mmHg 75%
    19:00 +28°C° 0.6 mm 1 m/S 726 mmHg 80%
    20:00 +27°C° 0.7 mm 1 m/S 727 mmHg 81%
    21:00 +27°C° 0.7 mm 1 m/S 727 mmHg 82%
    22:00 +27°C° 0.7 mm 1 m/S 727 mmHg 83%
    23:00 +26°C° 0.7 mm 1 m/S 727 mmHg 84%

    28 Januar, Dienstag

    Zeit Temperatur Niederschläge Wind Luftdruck Luftfeuchtigkeit
    00:00 +24°C° 0.7 mm 0 m/S 727 mmHg 85%
    01:00 +23°C° 0.7 mm 0 m/S 726 mmHg 87%
    02:00 +23°C° 0.2 mm 0 m/S 726 mmHg 87%
    03:00 +23°C° 0.2 mm 0 m/S 726 mmHg 87%
    04:00 +23°C° 0.2 mm 0 m/S 726 mmHg 88%
    05:00 +23°C° 0.4 mm 0 m/S 726 mmHg 88%
    06:00 +23°C° 0.4 mm 0 m/S 727 mmHg 87%
    07:00 +23°C° 0.4 mm 0 m/S 728 mmHg 87%
    08:00 +25°C° 0.1 mm 0 m/S 728 mmHg 83%
    09:00 +28°C° 0.1 mm 1 m/S 728 mmHg 78%
    10:00 +30°C° 0.1 mm 1 m/S 728 mmHg 73%
    11:00 +31°C° 0.1 mm 1 m/S 727 mmHg 69%
    12:00 +32°C° 0.1 mm 1 m/S 726 mmHg 64%
    13:00 +34°C° 0.1 mm 2 m/S 726 mmHg 60%
    14:00 +33°C° 0.1 mm 1 m/S 725 mmHg 60%
    15:00 +33°C° 0.1 mm 1 m/S 724 mmHg 60%
    16:00 +33°C° 0.1 mm 1 m/S 724 mmHg 60%
    17:00 +31°C° 0.2 mm 1 m/S 724 mmHg 66%
    18:00 +30°C° 0.2 mm 1 m/S 725 mmHg 71%
    19:00 +28°C° 0.2 mm 1 m/S 725 mmHg 77%
    20:00 +27°C° 0.6 mm 1 m/S 726 mmHg 80%
    21:00 +27°C° 0.6 mm 1 m/S 726 mmHg 83%
    22:00 +26°C° 0.6 mm 1 m/S 726 mmHg 86%
    23:00 +26°C° 0.2 mm 1 m/S 726 mmHg 87%

    29 Januar, Mittwoch

    Zeit Temperatur Niederschläge Wind Luftdruck Luftfeuchtigkeit
    00:00 +26°C° 0.2 mm 1 m/S 726 mmHg 87%
    01:00 +23°C° 0.2 mm 0 m/S 726 mmHg 88%
    02:00 +23°C° 0.3 mm 0 m/S 726 mmHg 89%
    03:00 +23°C° 0.3 mm 0 m/S 726 mmHg 89%
    04:00 +23°C° 0.3 mm 0 m/S 725 mmHg 90%
    05:00 +23°C° 0.1 mm 0 m/S 726 mmHg 89%
    06:00 +23°C° 0.1 mm 0 m/S 727 mmHg 88%
    07:00 +23°C° 0.1 mm 0 m/S 727 mmHg 87%
    08:00 +25°C° 0.2 mm 0 m/S 727 mmHg 83%
    09:00 +28°C° 0.2 mm 1 m/S 727 mmHg 79%
    10:00 +30°C° 0.2 mm 1 m/S 727 mmHg 75%
    11:00 +31°C° 0.2 mm 1 m/S 727 mmHg 70%
    12:00 +32°C° 0.2 mm 1 m/S 726 mmHg 66%
    13:00 +33°C° 0.2 mm 1 m/S 725 mmHg 61%
    14:00 +33°C° 0.1 mm 1 m/S 725 mmHg 61%
    15:00 +32°C° 0.1 mm 1 m/S 724 mmHg 61%
    16:00 +32°C° 0.1 mm 1 m/S 724 mmHg 60%
    17:00 +31°C° 0.2 mm 1 m/S 724 mmHg 66%
    18:00 +29°C° 0.2 mm 1 m/S 725 mmHg 72%
    19:00 +28°C° 0.2 mm 1 m/S 725 mmHg 78%
    20:00 +27°C° 0.4 mm 1 m/S 725 mmHg 80%
    21:00 +27°C° 0.4 mm 1 m/S 726 mmHg 82%
    22:00 +26°C° 0.4 mm 1 m/S 726 mmHg 84%
    23:00 +26°C° 0.5 mm 1 m/S 726 mmHg 85%

    30 Januar, Donnerstag

    Zeit Temperatur Niederschläge Wind Luftdruck Luftfeuchtigkeit
    00:00 +26°C° 0.5 mm 1 m/S 726 mmHg 86%
    01:00 +25°C° 0.5 mm 1 m/S 726 mmHg 87%
    02:00 +25°C° 0.6 mm 1 m/S 725 mmHg 87%
    03:00 +25°C° 0.6 mm 1 m/S 725 mmHg 88%
    04:00 +25°C° 0.6 mm 1 m/S 725 mmHg 88%
    05:00 +23°C° 0.1 mm 0 m/S 726 mmHg 88%
    06:00 +23°C° 0.1 mm 0 m/S 726 mmHg 87%
    07:00 +23°C° 0.1 mm 0 m/S 727 mmHg 87%
    08:00 +27°C° 0.4 mm 1 m/S 727 mmHg 83%
    09:00 +28°C° 0.4 mm 1 m/S 727 mmHg 78%
    10:00 +30°C° 0.4 mm 1 m/S 727 mmHg 74%
    11:00 +31°C° 0.3 mm 2 m/S 727 mmHg 69%
    12:00 +32°C° 0.3 mm 2 m/S 726 mmHg 64%
    13:00 +34°C° 0.3 mm 2 m/S 725 mmHg 59%
    14:00 +34°C° 0.2 mm 2 m/S 725 mmHg 58%
    15:00 +33°C° 0.2 mm 1 m/S 724 mmHg 58%
    16:00 +33°C° 0.2 mm 1 m/S 724 mmHg 57%
    17:00 +31°C° 0.7 mm 1 m/S 724 mmHg 64%
    18:00 +30°C° 0.7 mm 1 m/S 725 mmHg 70%
    19:00 +28°C° 0.7 mm 1 m/S 725 mmHg 77%
    20:00 +27°C° 0.3 mm 1 m/S 726 mmHg 78%
    21:00 +27°C° 0.3 mm 1 m/S 726 mmHg 79%
    22:00 +27°C° 0.3 mm 1 m/S 726 mmHg 81%
    23:00 +26°C° 0.1 mm 1 m/S 726 mmHg 81%
    Mehr zeigen